,

(GMT )
Gavle

Weather History for ESSK - July, 2013

Change the Weather History Date:

Saturday, July 13, 2013

  Actual Average Record
Temperature  
Mean Temperature 64 °F -  
Max Temperature 80 °F - - ()
Min Temperature 47 °F - - ()
Degree Days  
Heating Degree Days 2    
Growing Degree Days 14 (Base 50)    
Moisture  
Dew Point 52 °F    
Average Humidity 53    
Maximum Humidity 93    
Minimum Humidity 27    
Precipitation  
Precipitation 0.00 in - - ()
Sea Level Pressure  
Sea Level Pressure 30.00 in    
Wind  
Wind Speed 2 mph ()    
Max Wind Speed 9 mph    
Max Gust Speed -    
T = Trace of Precipitation, MM = Missing Value Source: Averaged Metar Reports

Daily Weather History Graph

Daily Weather History Graph

Search for Another Location

Airport or City:

Trip Planner

Search our weather history database for the weather conditions in past years. The results will help you decide how hot, cold, wet, or windy it might be!

Date:

Astronomy

Jul. 13, 2013 Rise Set
Actual Time 3:54 AM CEST 9:58 PM CEST
Civil Twilight 2:37 AM CEST 11:15 PM CEST
Nautical Twilight Sun does not rise Sun does not rise
Astronomical Twilight Sun does not rise Sun does not rise
Moon 10:29 AM CEST 10:47 PM CEST
Length of Visible Light 20h 38m
Length of Day
18h 03m
Waxing Crescent, 23% of the Moon is Illuminated
Jul 13
Waxing Crescent
Jul 16
First Quarter
Jul 22
Full
Jul 29
Last Quarter
Aug 6
New

Hourly Weather History & Observations

Time (CEST) Temp. Dew Point Humidity Pressure Visibility Wind Dir Wind Speed Gust Speed Precip Events Conditions
1:00 AM 52 °F 48 °F 80% 30.10 in 31 mi Calm Calm - -  
2:00 AM 51 °F 48 °F 86% 30.09 in 28 mi Calm Calm - -  
3:00 AM 49 °F 47 °F 90% 30.09 in 28 mi Calm Calm - -  
4:00 AM 47 °F 45 °F 92% 30.09 in 28 mi Calm Calm - -  
5:00 AM 47 °F 46 °F 93% 30.09 in 25 mi Calm Calm - -  
6:00 AM 54 °F 51 °F 86% 30.08 in 25 mi Calm Calm - -  
7:00 AM 60 °F 53 °F 72% 30.07 in 25 mi SE 2.2 mph - -  
8:00 AM 65 °F 55 °F 61% 30.07 in 28 mi SE 2.2 mph - -  
9:00 AM 69 °F 55 °F 51% 30.06 in 25 mi South 2.2 mph - -  
11:00 AM 75 °F 53 °F 35% 30.04 in 25 mi SW 2.2 mph - -  
12:00 PM 76 °F 52 °F 33% 30.01 in 25 mi SSW 4.5 mph - -  
1:00 PM 77 °F 51 °F 30% 30.00 in 25 mi West 4.5 mph - -  
2:00 PM 78 °F 52 °F 29% 29.99 in 28 mi WSW 6.7 mph - -  
3:00 PM 78 °F 51 °F 28% 29.97 in 28 mi SSW 6.7 mph - -  
4:00 PM 80 °F 52 °F 27% 29.95 in 28 mi SW 6.7 mph - -  
5:00 PM 79 °F 53 °F 30% 29.94 in 25 mi SW 8.9 mph - -  
6:00 PM 78 °F 53 °F 31% 29.92 in 25 mi SW 6.7 mph - -  
7:00 PM 79 °F 53 °F 30% 29.90 in 28 mi SW 4.5 mph - -  
8:00 PM 78 °F 53 °F 31% 29.89 in 25 mi SW 4.5 mph - -  
9:00 PM 74 °F 54 °F 40% 29.89 in 28 mi WSW 2.2 mph - -  
10:00 PM 69 °F 54 °F 48% 29.90 in 31 mi SSW 2.2 mph - -  
11:00 PM 69 °F 55 °F 52% 29.90 in 28 mi SW 4.5 mph - -